AirNav   Pilot Hours Calculator
 
 669 users online  

OK47 Miller Brothers Airport
Manchester, Oklahoma, USA

GOING TO MANCHESTER?


FAA INFORMATION EFFECTIVE 26 JANUARY 2023

Location

FAA Identifier: OK47
Lat/Long: 36-56-30.0940N 098-01-01.2220W
36-56.501567N 098-01.020367W
36.9416928,-98.0170061
(estimated)
Elevation: 1250 ft. / 381 m (estimated)
Variation: 07E (1985)
From city: 3 miles S of MANCHESTER, OK
Time zone: UTC -6 (UTC -5 during Daylight Saving Time)
Zip code: 73758

Airport Operations

Airport use: Private use. Permission required prior to landing
Control tower: no
ARTCC: KANSAS CITY CENTER
FSS: MC ALESTER FLIGHT SERVICE STATION
Attendance: UNATNDD
Wind indicator: yes
Segmented circle: no

Nearby radio navigation aids

VOR radial/distance  VOR name  Freq  Var
ODGr334/35.8WOODRING VOR/DME109.0008E
ENDr347/36.1VANCE VORTAC115.4005E

Airport Services

Airframe service: NONE
Powerplant service: NONE

Runway Information

Runway N/S

Dimensions: 1300 x 50 ft. / 396 x 15 m
Surface: turf
RUNWAY N  RUNWAY S
Traffic pattern: leftleft

Airport Ownership and Management from official FAA records

Ownership: Privately-owned
Owner: MILLER BROTHERS
11905 S. HOLLEY ST.
JENKS, OK 74037
Phone 918-298-0429
Manager: MARTIN H. MILLER
11905 S. HOLLEY ST.
JENKS, OK 74037
Phone 918-298-0429

Airport Operational Statistics

Aircraft based on the field: 1
Single engine airplanes: 1
    

Additional Remarks

FARM BLDGS NW CORNER.
FOR CD CTC VANCE APCH AT580-213-6765. WHEN VANCE APCH IS CLSD, CTC KANSAS CITY ARTCC AT 913-254-8508.

Instrument Procedures

There are no published instrument procedures at OK47.

Some nearby airports with instrument procedures:

KANY - Anthony Municipal Airport (13 nm N)
O53 - Medford Municipal Airport (16 nm SE)
8K2 - Harper Municipal Airport (20 nm N)
KAVK - Alva Regional Airport (33 nm W)
KBKN - Blackwell-Tonkawa Municipal Airport (34 nm E)
 
Loc | Ops | Rwys | IFR | FBO | Links
Com | Nav | Svcs | Stats | Notes
Area around OK47 (Miller Brothers Airport)
 
Road maps at: MapQuest Bing Google
 
Aerial photo
No photo
 
Sectional chart

 
Airport distance calculator
Flying to Miller Brothers Airport? Find the distance to fly.

From to OK47

Sunrise and sunset
Times for 02-Feb-2023
 Local
(UTC-6)
 Zulu
(UTC)
Morning civil twilight07:0713:07
Sunrise07:3513:35
Sunset17:5723:57
Evening civil twilight18:2400:24

Current date and time
Zulu (UTC)  02-Feb-2023 09:03:52
Local (UTC-6)  02-Feb-2023 03:03:52
 
METAR
KP28 
33nm NW 
020856Z AUTO 34004KT M11/M12 RMK AO1 SLPNO T11061117 $
KAVK 
33nm W 
020320Z AUTO 15005KT 10SM FEW027 FEW035 FEW041 M03/M10 A3027 RMK AO2 PWINO
KWDG 
37nm S 
020855Z AUTO 00000KT 10SM CLR M01/M06 A3026 RMK AO2
KEND 
38nm S 
020555Z 17003KT 10SM FEW130 M03/M10 A3024 RMK AO2A SLP256 T10311100 11020 21042 410041096 58008
KEGT 
38nm NE 
020855Z AUTO 26003KT 10SM CLR M06/M09 A3026 RMK AO2 T10611092
TAF
KEND 
38nm S 
020600Z 0206/0308 18006KT 9999 OVC100 QNH3023INS BECMG 0208/0209 VRB06KT 9999 BKN100 QNH3024INS BECMG 0214/0215 31010KT 9999 BKN200 QNH3021INS TX09/0220Z TNM04/0211Z LAST NO AMDS AFT 0206 NEXT 0210
KPNC 
46nm E 
020520Z 0206/0306 VRB03KT P6SM BKN150 FM021700 33011KT P6SM SCT150
NOTAMs
Click for the latest NOTAMs
NOTAMs are issued by the DoD/FAA and will open in a separate window not controlled by AirNav.

 

 
 

Would you like to see your business listed on this page?

 If your business provides an interesting product or service to pilots, flight crews, aircraft, or users of the Miller Brothers Airport, you should consider listing it here.  To start the listing process, click on the button below
 
Add a business
 

Other Pages about Miller Brothers Airport

Update a link
 
Copyright © AirNav, LLC. All rights reserved. Privacy Policy  Contact